Wind_Speed
12 11 11 10 9 8 6 5 4 3 2 2 1 1 2 3 3 4 5 6 7 7 8 9 9 9 10 10 10 10 11 11 10 9 9 8 7 7 7 7 7 6 6
11 11 11 10 9 8 7 5 4 4 3 3 2 2 2 3 3 4 5 6 7 7 8 9 9 9 10 9 9 10 10 11 10 9 9 9 8 8 7 7 8 7 7
11 11 11 10 9 8 7 6 5 5 4 3 3 2 3 3 4 4 5 6 7 8 8 9 9 9 9 9 10 10 10 11 10 10 9 9 9 8 8 9 9 8 8
12 11 11 10 9 8 8 7 6 5 5 4 4 3 3 3 4 5 5 6 7 8 8 9 9 9 9 10 10 11 11 11 11 11 10 10 9 9 10 10 10 10 10
12 12 11 10 10 9 8 7 7 6 6 5 5 4 4 4 5 5 5 6 7 8 9 9 9 9 10 10 11 11 11 11 11 11 11 11 10 10 11 11 12 12 11
12 12 11 10 10 10 9 9 8 7 7 6 6 5 5 5 5 6 6 7 7 8 9 10 10 10 11 11 11 11 11 11 11 12 12 12 12 12 12 12 12 12 12
12 12 12 11 11 10 10 10 9 9 8 8 7 6 6 7 7 7 7 7 8 8 9 10 10 11 11 11 11 11 12 12 12 13 13 13 14 14 14 14 14 14 13
12 12 12 11 11 11 11 11 10 10 9 9 9 8 8 8 9 9 9 9 9 9 10 11 11 11 12 12 12 12 12 13 13 14 14 14 15 15 15 15 15 16 15
13 12 12 12 13 12 12 12 11 11 11 11 10 10 10 10 10 10 10 10 10 10 11 12 12 12 13 13 13 13 14 14 14 15 15 15 16 16 16 16 16 16 15
13 13 13 13 13 14 13 13 12 12 12 12 11 12 12 12 12 12 12 12 12 12 12 12 12 13 14 14 14 15 15 16 16 16 16 17 17 17 17 16 16 16 16
13 13 13 13 13 14 14 13 13 13 13 12 12 13 13 13 13 13 13 13 13 13 13 13 13 14 14 15 16 16 17 17 17 17 18 18 18 18 18 18 17 17 17
12 13 13 13 14 14 14 14 14 14 14 14 14 14 14 15 15 15 15 15 15 14 14 14 14 15 16 16 17 18 18 18 19 19 19 19 19 19 19 19 18 18 18
12 13 14 14 14 14 14 14 15 15 15 15 15 15 16 16 15 16 16 16 16 16 16 16 16 17 17 18 19 19 20 20 20 20 21 21 21 20 21 20 20 20 19
13 14 14 14 15 15 15 15 15 16 16 16 16 16 16 16 16 17 17 17 17 18 18 18 18 18 19 19 20 21 21 22 22 22 22 23 22 22 22 22 22 21 21
14 15 15 16 15 16 15 16 16 17 17 17 17 17 17 17 18 18 18 18 19 19 19 20 20 20 21 21 22 22 23 23 24 24 24 24 24 24 24 23 23 23 23
15 15 15 16 16 16 16 16 17 18 17 18 18 19 19 18 18 18 19 19 20 20 21 21 22 22 23 23 24 24 25 25 25 26 26 26 26 26 26 25 25 25 25
15 15 15 16 16 17 17 17 18 18 19 19 19 19 20 20 20 20 21 21 21 21 22 22 23 23 24 25 25 26 26 27 27 27 28 28 28 28 28 27 27 27 27
16 17 17 17 18 18 18 19 19 20 20 21 21 21 22 22 22 22 22 22 23 23 24 24 25 25 26 26 26 27 28 28 29 30 30 30 31 30 30 30 29 29 29
18 18 19 19 19 19 20 20 20 21 22 22 22 23 23 23 23 23 23 24 24 25 25 26 26 27 27 28 29 30 30 31 31 32 32 33 33 33 32 32 32 32 32
20 20 20 20 21 21 21 22 22 22 22 23 23 24 24 24 24 25 25 26 27 27 27 28 28 29 30 30 31 32 33 33 34 34 34 35 35 35 35 35 35 34 34
21 22 22 22 22 22 23 23 23 23 23 24 24 25 25 25 26 26 27 28 28 28 29 30 30 31 32 33 33 34 35 36 36 36 36 37 37 37 37 38 38 37 37
22 23 23 23 23 23 23 23 24 24 25 25 25 25 26 27 27 28 29 29 30 30 31 31 32 32 33 34 35 36 37 38 38 38 39 39 39 39 40 40 40 40 40
24 24 24 24 24 24 25 25 26 26 26 26 27 27 28 29 30 30 31 31 32 32 32 33 34 34 35 37 38 39 39 40 41 41 41 42 42 42 42 42 42 42 42
25 26 26 26 26 26 27 27 28 28 29 29 29 30 30 31 32 32 33 33 34 34 35 35 36 37 38 39 40 41 42 42 43 44 44 44 44 44 45 45 45 45 44
27 27 28 28 28 28 28 28 29 29 30 30 31 31 32 32 33 34 35 35 36 36 37 38 39 40 41 42 43 43 44 45 45 46 46 46 47 47 47 48 48 48 48
29 29 29 29 29 29 29 29 30 30 31 31 32 33 33 34 35 35 36 37 38 38 39 40 41 42 43 44 45 46 46 47 47 48 48 49 49 49 49 50 50 50 50
Wind_Direction
194 194 197 198 198 200 204 212 223 225 228 239 247 268 310 329 338 346 347 350 353 358 0 2 3 5 6 7 9 10 10 11 9 5 1 353 346 341 335 332 327 322 313
197 198 196 195 197 201 209 215 222 225 228 235 247 272 294 310 326 339 344 347 350 355 357 358 360 2 3 3 2 3 5 6 5 2 358 355 351 347 340 334 325 318 313
199 199 201 200 204 208 215 218 225 226 227 234 248 272 286 296 311 323 332 339 345 349 351 353 356 356 357 359 356 356 357 358 359 358 356 352 349 344 338 335 328 317 311
202 205 209 210 210 212 217 219 222 228 233 239 249 269 286 292 301 311 322 333 340 343 345 347 349 349 348 349 350 352 353 351 351 352 351 349 345 340 335 331 325 318 312
208 211 212 214 214 215 219 221 223 231 238 242 249 266 280 291 295 302 311 323 331 336 339 340 340 341 341 340 341 344 347 347 346 345 344 343 339 335 329 327 323 317 310
212 214 216 219 218 220 223 226 229 235 241 247 254 263 276 287 294 299 304 312 317 325 331 334 334 335 336 336 336 338 338 338 337 337 336 335 332 328 325 322 319 316 312
215 217 218 222 226 227 227 230 234 238 244 251 256 262 271 280 291 298 301 306 309 314 320 325 327 329 332 332 332 333 332 330 331 330 328 327 327 324 321 319 317 313 309
222 224 224 227 231 231 232 235 238 242 248 253 255 260 269 277 285 292 296 303 307 310 313 316 318 322 324 325 327 326 326 326 325 324 322 320 320 320 318 316 314 310 305
226 229 230 231 233 235 236 240 243 248 252 254 256 262 270 276 283 288 293 299 303 305 308 310 313 316 319 320 322 323 322 323 323 322 321 320 318 317 316 315 314 312 309
233 235 236 234 235 237 239 242 247 251 254 256 259 266 271 275 280 284 289 294 298 300 303 307 311 314 316 317 318 318 318 319 320 321 319 319 319 319 319 317 315 312 310
236 238 239 237 238 240 242 246 250 253 255 258 263 268 272 277 280 282 287 292 294 296 299 302 308 311 312 313 315 316 316 316 318 319 318 318 318 317 318 317 314 312 311
241 242 239 239 242 245 249 250 252 254 257 261 265 268 273 278 280 281 284 288 290 292 295 299 302 305 307 309 312 314 314 314 315 316 316 316 316 316 317 316 315 311 308
245 246 245 244 246 249 252 256 256 257 260 262 265 269 274 277 279 281 283 285 287 289 291 294 298 300 303 305 309 311 312 312 312 313 313 313 314 314 315 314 313 310 305
249 249 248 248 250 253 257 260 260 262 264 265 268 271 273 278 280 282 283 284 285 288 290 292 295 297 300 303 306 308 309 310 310 311 312 312 311 312 312 312 310 308 304
252 252 253 253 256 259 262 264 264 265 267 268 270 273 273 277 280 281 281 282 284 286 288 289 292 294 298 301 304 305 306 307 307 308 309 310 310 309 309 308 307 306 302
257 258 258 257 258 261 263 264 266 268 271 272 272 274 275 277 279 281 282 282 284 286 287 288 290 293 296 298 301 303 304 304 305 306 306 307 308 307 306 305 303 302 300
260 261 260 260 262 264 265 266 266 268 271 273 274 275 275 277 279 281 281 281 283 284 285 287 290 292 295 297 299 301 302 303 303 304 305 305 305 305 303 302 301 300 298
260 262 263 263 264 265 266 267 268 270 271 273 275 276 276 277 278 281 282 282 283 284 286 288 289 291 294 296 298 300 301 301 302 302 303 303 303 303 302 301 300 299 297
262 264 266 266 265 267 268 269 270 271 272 273 275 276 276 278 279 280 281 282 283 285 286 288 290 291 294 295 296 298 300 300 301 301 301 302 302 301 301 300 299 298 297
264 265 267 268 267 268 269 270 271 271 272 273 274 276 276 277 278 279 280 282 284 284 285 287 289 291 293 294 296 297 298 299 300 301 301 301 300 300 299 299 299 297 296
268 268 269 270 270 270 270 272 272 272 273 274 275 276 277 277 279 280 281 282 284 285 286 287 289 291 292 294 295 296 297 298 299 300 300 300 299 299 298 297 298 297 295
270 270 270 270 270 271 271 272 273 273 273 275 276 277 278 279 281 282 283 283 285 286 287 287 289 290 292 293 294 295 296 297 298 299 299 299 298 298 297 296 296 296 294
271 270 270 270 271 271 271 271 272 273 274 275 277 278 279 280 281 282 283 283 284 286 287 288 289 290 292 293 295 296 296 296 297 297 298 298 298 297 296 296 296 295 294
272 271 270 270 271 271 272 272 272 274 274 275 277 278 280 281 282 282 283 283 284 286 288 289 290 291 292 293 294 295 296 296 296 297 297 296 297 297 296 296 295 294 293
273 272 271 270 271 272 273 273 274 275 276 277 278 279 280 282 282 283 284 284 285 287 288 289 290 291 292 293 294 295 295 296 296 297 297 297 296 296 296 296 295 294 293
273 273 271 270 271 272 273 274 275 276 277 277 278 280 280 281 283 283 284 285 286 287 288 289 290 291 292 293 294 294 294 295 295 296 297 297 296 296 296 296 295 294 293
Height
5884 5885 5887 5888 5889 5891 5892 5893 5893 5894 5894 5894 5895 5895 5894 5894 5893 5892 5891 5890 5889 5887 5885 5884 5882 5880 5878 5877 5875 5873 5871 5870 5868 5867 5865 5864 5863 5862 5861 5860 5860 5859 5859
5882 5884 5886 5887 5889 5890 5891 5892 5892 5893 5893 5894 5894 5894 5894 5893 5893 5892 5891 5890 5888 5887 5885 5884 5882 5880 5878 5877 5875 5873 5872 5870 5868 5867 5865 5864 5863 5861 5860 5859 5858 5858 5857
5881 5883 5885 5886 5888 5889 5890 5891 5892 5892 5893 5893 5893 5893 5893 5892 5892 5891 5890 5889 5888 5886 5885 5883 5882 5880 5878 5877 5875 5873 5872 5870 5868 5866 5865 5863 5862 5860 5860 5858 5857 5856 5855
5880 5882 5884 5885 5886 5888 5889 5890 5891 5891 5892 5892 5892 5892 5892 5892 5891 5890 5890 5889 5887 5886 5884 5883 5881 5880 5878 5876 5875 5873 5871 5869 5867 5866 5864 5863 5861 5860 5858 5857 5855 5854 5853
5879 5881 5882 5884 5885 5886 5887 5888 5889 5890 5890 5891 5891 5891 5891 5890 5890 5889 5888 5888 5887 5885 5884 5882 5881 5879 5877 5876 5874 5872 5870 5869 5867 5865 5863 5861 5859 5858 5857 5855 5853 5852 5850
5878 5880 5881 5882 5883 5884 5886 5887 5888 5888 5889 5889 5889 5890 5890 5889 5889 5888 5887 5886 5885 5884 5883 5881 5880 5878 5876 5875 5873 5871 5869 5868 5866 5864 5862 5860 5858 5856 5855 5853 5851 5849 5847
5877 5878 5879 5881 5882 5883 5884 5885 5886 5886 5887 5887 5888 5888 5888 5888 5887 5887 5886 5885 5884 5883 5882 5880 5879 5877 5875 5873 5872 5870 5868 5866 5864 5862 5860 5858 5856 5854 5852 5850 5848 5846 5844
5875 5877 5878 5879 5880 5881 5882 5883 5884 5884 5885 5885 5886 5886 5886 5886 5885 5885 5884 5883 5882 5881 5880 5879 5877 5875 5874 5872 5870 5869 5867 5865 5863 5860 5858 5856 5854 5851 5849 5847 5845 5843 5841
5874 5875 5876 5877 5878 5879 5880 5881 5882 5882 5883 5883 5884 5884 5884 5884 5883 5883 5882 5881 5880 5879 5878 5877 5875 5874 5872 5870 5869 5867 5865 5863 5860 5858 5856 5853 5851 5848 5846 5843 5841 5839 5836
5872 5873 5874 5875 5876 5877 5877 5878 5879 5880 5880 5881 5881 5881 5881 5881 5880 5880 5879 5879 5878 5877 5876 5875 5873 5872 5870 5868 5866 5864 5862 5860 5858 5856 5853 5850 5848 5845 5842 5839 5836 5834 5832
5870 5870 5871 5872 5873 5874 5875 5876 5876 5877 5877 5878 5878 5878 5878 5878 5877 5877 5876 5876 5875 5874 5873 5872 5870 5869 5867 5866 5864 5862 5860 5857 5855 5853 5850 5847 5844 5842 5839 5836 5833 5830 5828
5867 5868 5868 5869 5870 5871 5872 5872 5873 5874 5874 5874 5874 5874 5874 5874 5874 5873 5873 5872 5872 5871 5870 5869 5867 5866 5864 5863 5861 5859 5857 5854 5852 5850 5847 5844 5841 5838 5835 5832 5829 5826 5823
5864 5865 5866 5867 5867 5868 5869 5869 5870 5870 5870 5871 5871 5871 5871 5870 5870 5870 5869 5869 5868 5867 5866 5865 5864 5862 5861 5859 5857 5855 5853 5851 5848 5846 5843 5840 5837 5834 5831 5827 5824 5821 5819
5862 5862 5863 5864 5864 5865 5865 5866 5866 5866 5867 5867 5867 5867 5867 5866 5866 5866 5865 5865 5864 5863 5862 5861 5860 5858 5857 5855 5853 5851 5849 5846 5844 5841 5839 5836 5833 5829 5826 5823 5819 5817 5814
5859 5859 5860 5860 5861 5861 5862 5862 5862 5862 5862 5862 5862 5863 5862 5862 5862 5861 5861 5860 5860 5859 5858 5856 5855 5854 5852 5850 5848 5846 5844 5842 5839 5836 5834 5831 5827 5824 5821 5817 5814 5811 5809
5856 5856 5856 5857 5857 5857 5857 5858 5858 5858 5858 5858 5858 5858 5858 5857 5857 5856 5856 5855 5855 5854 5852 5851 5850 5848 5847 5845 5843 5841 5839 5836 5833 5831 5828 5825 5822 5818 5815 5812 5808 5805 5803
5852 5852 5852 5852 5853 5853 5853 5853 5853 5853 5853 5853 5853 5853 5853 5853 5852 5851 5851 5850 5849 5848 5847 5846 5844 5843 5841 5839 5837 5835 5833 5830 5827 5824 5821 5818 5815 5812 5808 5805 5802 5799 5796
5847 5848 5848 5848 5848 5848 5848 5848 5848 5848 5848 5848 5848 5848 5848 5847 5847 5846 5845 5844 5843 5842 5841 5840 5838 5837 5835 5833 5831 5828 5826 5823 5820 5817 5814 5811 5807 5804 5801 5798 5795 5791 5788
5843 5843 5843 5843 5843 5843 5844 5844 5843 5843 5843 5843 5843 5842 5842 5841 5841 5840 5839 5838 5837 5836 5835 5833 5832 5830 5828 5826 5824 5821 5818 5816 5813 5810 5806 5803 5799 5796 5793 5790 5787 5784 5780
5837 5838 5838 5838 5838 5838 5838 5838 5838 5837 5837 5837 5837 5836 5836 5835 5834 5834 5833 5831 5830 5829 5828 5826 5824 5823 5821 5818 5816 5813 5811 5808 5805 5801 5798 5794 5791 5787 5783 5781 5777 5774 5771
5832 5832 5832 5832 5832 5832 5832 5832 5832 5832 5831 5831 5830 5830 5829 5828 5827 5827 5826 5824 5823 5822 5820 5819 5817 5815 5812 5810 5807 5804 5802 5799 5795 5792 5789 5785 5781 5778 5774 5771 5767 5764 5761
5826 5826 5826 5826 5826 5826 5826 5826 5826 5825 5825 5824 5824 5823 5822 5821 5820 5819 5818 5817 5815 5814 5812 5810 5808 5806 5804 5801 5798 5795 5792 5789 5786 5782 5778 5775 5771 5767 5763 5760 5756 5753 5749
5819 5819 5819 5819 5819 5819 5819 5819 5819 5818 5818 5817 5816 5816 5815 5814 5813 5811 5810 5808 5807 5805 5803 5801 5799 5797 5794 5791 5788 5785 5781 5778 5775 5771 5767 5763 5760 5756 5752 5748 5744 5741 5737
5812 5812 5812 5812 5812 5812 5812 5812 5811 5811 5810 5809 5808 5808 5807 5805 5804 5803 5801 5800 5798 5796 5794 5792 5790 5787 5784 5781 5777 5774 5770 5767 5763 5759 5756 5751 5747 5743 5739 5736 5732 5728 5724
5804 5804 5804 5804 5804 5804 5804 5803 5803 5803 5802 5801 5800 5799 5798 5796 5795 5793 5792 5790 5788 5786 5784 5781 5779 5776 5773 5770 5766 5762 5758 5754 5750 5746 5743 5739 5734 5730 5726 5722 5718 5714 5710
5796 5796 5796 5795 5795 5795 5795 5795 5794 5794 5793 5792 5791 5790 5789 5787 5785 5784 5782 5779 5777 5775 5772 5770 5767 5764 5761 5757 5753 5749 5745 5741 5737 5733 5729 5725 5720 5716 5712 5707 5703 5699 5695